Back to catalog

OAO 2

AliveScienceLEO
NORAD 3597·PAYLOAD·🇺🇸 United States

Launched Dec 7, 1968 from Cape Canaveral Space Force Station

Loading…

Next Passes (next 24 hours)

TLE

FreshSource: Space-Track

Epoch: Sep 14, 2026, 12:39 UTC

1 03597U 68110A   26257.52776748  .00000140  00000-0  42688-4 0  9995
2 03597  34.9936 290.8240 0006043 272.4203  87.5796 14.47379838 46475

Track OAO 2 in real time with AllMySat

Download on the App Store